map of SSN home
SSN - Airport
Location
City:  Seongnam, Republic of Korea (South Korea)
Name:Seoul AB
ICAO:RKSM
IATA:SSN

Details
Type:Airport (Aerodrome, Airfield)
Use:Military, International (customs port of entry)
Latitude:37░26'45"N (37.445833)
Longitude:127░06'50"E (127.113889)
Datum:WGS 1984
Elevation:92 ft (28 m)
Variation:8.36░W (WMM2015 magnetic declination)
-0.07░ annual change
Runways:2
Longest:9700 × 150 ft (2957 × 45.5 m), paved

Time
Time Zone:UTC+9
Local Time:

Weather
METAR:RKSM 230000Z 19004KT 9999 SCT050 BKN200 21/14 A2988 RMK CIG200 SLP117 8/508 9/304
TAF:RKSM 222300Z 2300/2406 15006KT 9999 FEW040 BKN200
BECMG 2303/2304 21008KT 9999 BKN040 BKN200
BECMG 2309/2310 21008KT 8000 -RA BR BKN030 OVC100 TX26/2306Z TN17/2321Z

Related Locations
Nearby:
Farthest:SUPE: 12225 mi / 19674 km
Punta el Este [El JagŘel Airport], MA, UY

Find:

   beyond  
but within

Other Information
Maps:
NOTAMs:
Links:
Sources:

  
flag of Republic of Korea (South Korea)   

Sectional Chart

Flight Planning
at skyvector.com

Satellite Image

Google Maps Satellite view

 

Copyright © 2004-2017 Karl L. Swartz. All rights reserved.
The Great Circle Mapper name and logo are trademarks of the Great Circle Mapper.
All other trademarks mentioned herein belong to their respective owners.
Please see credits for attibutions and further copyright information.

  Follow gcmap on Facebook Follow gcmap on Twitter Follow gcmap on Google+ GCmap on LinkedIn

hCard Microformat

Geo Microformat